Regional Weather Roundup
Issued by NWS Wakefield, VA

Home | Current Version | Previous Version | Text Only | Print | Product List | Glossary On
Versions: 1 2 3 4 5 6 7 8 9 10 11 12 13 14 15 16 17 18 19 20 21 22 23 24 25 26 27
000
ASUS41 KAKQ 310615
RWRAKQ

REGIONAL WEATHER ROUNDUP
NATIONAL WEATHER SERVICE WAKEFIELD VA
200 AM EDT SAT JUL 31 2021

Note: "fair" indicates few or no clouds below 12,000 feet with no
significant weather and/or obstructions to visibility. * = Denotes
station may not report precipitation (e.g., rain,snow,etc.),
thunder or fog.

VAZ042-051-052>054-056-310700-
NORTHERN VIRGINIA

CITY           SKY/WX    TMP DP  RH WIND       PRES   REMARKS
WASH NATIONAL  MOCLDY    76  54  46 N12       29.99S
DULLES         PTCLDY    68  55  63 NW6       30.00R
FORT BELVOIR   PTCLDY    67  59  74 CALM      29.98S
QUANTICO       PTCLDY    72  58  61 NW3       29.99R
FREDERICKSBRG* PTCLDY    72  59  64 N3        29.97S
STAFFORD*      CLOUDY    70  57  63 CALM      30.03R
WARRENTON      PTCLDY    63  60  91 CALM      30.00S
CULPEPER*      PTCLDY    66  58  76 CALM      30.01S
MANASSAS*      CLEAR     64  60  87 CALM      30.00R
LEESBURG*      CLEAR     70  55  60 N5        30.02S
WINCHESTER     PTCLDY    66  52  59 N3        30.01S
FRONT ROYAL*   FAIR      64  55  72 CALM      30.02R
LURAY*         FAIR      63  57  82 CALM      30.03S
$$

VAZ048-049-060>072-079>083-310700-
CENTRAL AND SOUTH CENTRAL VIRGINIA

CITY           SKY/WX    TMP DP  RH WIND       PRES   REMARKS
RICHMOND       CLOUDY    77  62  59 N9        29.96S
CHESTERFIELD*  NOT AVBL
PETERSBURG*    PTCLDY    72  70  95 CALM      29.96S FOG
HANOVER        CLOUDY    76  61  59 CALM      29.98S
TAPPAHANNOCK*  CLOUDY    72  72 100 CALM      29.97S
QUINTON*       MOCLDY    74  70  88 CALM      29.95S
CHARLOTTSVILLE PTCLDY    71  58  63 N5        30.00S
GORDONSVILLE*  MOCLDY    67  62  84 CALM      30.00S
ORANGE*        MOCLDY    70  57  64 E3        30.00R
LOUISA*        PTCLDY    69  58  68 NE6       30.04S
BUMPASS*       CLOUDY    75  55  48 CALM      29.99S
FARMVILLE*     PTCLDY    72  69  89 NE3       29.97S
CREWE*         FAIR      71  68  91 N3        29.97S
FORT PICKETT*  MOCLDY    72  72 100 N6        29.97S
CHASE CITY*    FAIR      73  70  91 CALM      29.97R
CLARKSVILLE*   FAIR      73  73 100 N5        29.95S
SOUTH HILL*    CLEAR     71  69  93 CALM      30.01S
LAWRENCEVILLE* FAIR      73  72  97 CALM      29.96R
EMPORIA*       MOCLDY    73  71  96 CALM      29.96R
$$

VAZ088>098-310700-
SOUTHEAST VIRGINIA

CITY           SKY/WX    TMP DP  RH WIND       PRES   REMARKS
NORFOLK        MOCLDY    74  74 100 NW3       29.93F
VIRGINIA BEACH LGT RAIN  76  71  85 NW6       29.93S
NORFOLK NAVAL  CLOUDY    77  72  84 NE6       29.94R
WEST POINT*      N/A     74  69  84 CALM      29.94F
SALUDA*        FAIR      79  64  59 N8        29.94F
NEWPORT NEWS   CLOUDY    75  75 100 E8        29.94S FOG
LANGLEY AFB    MOCLDY    77  76  98 E8        29.94S
FORT EUSTIS    LGT RAIN  77  73  88 NW3       29.93S
WILLIAMSBURG*    N/A     75  75 100 CALM      29.95F
HR EXEC AP*    LGT RAIN  72  72 100 CALM      29.94F FOG
FRANKLIN*      CLOUDY    72  72  98 CALM      29.93F FOG
US460-WAKEFLD  PTCLDY    74  73  97 CALM      29.94S FOG
$$

VAZ020-022-025-037-045-310700-
WEST CENTRAL AND SOUTHWEST VIRGINIA

CITY           SKY/WX    TMP DP  RH WIND       PRES   REMARKS
STAUNTON*      CLEAR     63  56  79 CALM      30.05S
WAYNESBORO*    MOCLDY    65  58  77 S3        30.04F
HOT SPRINGS VA NOT AVBL
LYNCHBURG      CLOUDY    76  64  66 N3        30.01R
DANVILLE       CLEAR     77  66  68 NE7       29.97R
SOUTH BOSTON*  FAIR      74  69  82 N3        29.97R
MARTINSVILLE   CLEAR     66  65  98 NW3       30.03S
ROANOKE        CLEAR     74  61  63 CALM      30.04S
BLACKSBURG     CLEAR     67  64  90 CALM      30.10F
DUBLIN*        CLEAR     69  61  76 CALM      30.09S
MARION*        CLEAR     61  60  96 CALM      30.12F
HILLSVILLE*    CLEAR     67  64  91 CALM      30.09F
RICHLANDS*     FAIR      63  62  96 CALM      30.12F
WISE*          CLEAR     64  63  94 CALM      30.12F
ABINGDON*      CLEAR     65  61  86 CALM      30.07F
$$

MDZ021>025-VAZ099-100-310700-
SOUTHERN MARYLAND AND THE DELMARVA PENINSULA

CITY           SKY/WX    TMP DP  RH WIND       PRES   REMARKS
PATUXENT RIVER PTCLDY    78  61  55 NE7       29.95S
BAY BRIDGE APT NOT AVBL
LEONARDTOWN    PTCLDY    68  61  77 CALM      29.98S
DOVER          PTCLDY    66  57  72 N9        29.96S
GEORGETOWN     PTCLDY    68  64  87 CALM      29.97R
EASTON         PTCLDY    71  62  73 CALM      30.01R
CAMBRIDGE      CLEAR     73  64  73 N5        29.96S
SALISBURY      PTCLDY    71  65  81 N3        29.96R
TANGIER        MOCLDY    82  65  56 N13G18    29.93S
OCEAN CITY     PTCLDY    74  62  66 NE7       29.96R
WALLOPS ISLAND MOCLDY    73  72  96 CALM      29.94S
ACCOMACK*      PTCLDY    71  69  95 CALM      29.94S FOG
$$

NCZ012>017-030>032-310700-
NORTH CENTRAL AND EASTERN NORTH CAROLINA

CITY           SKY/WX    TMP DP  RH WIND       PRES   REMARKS
ROANOKE RAPIDS MOCLDY    72  72 100 NE3       29.93S
RALEIGH        PTCLDY    79  68  69 CALM      29.93S
ELIZABETH CITY PTCLDY    76  71  85 N8        29.91F
AHOSKIE*       MOCLDY    73  73 100 N3        29.93F
EDENTON*       MOCLDY    77  74  91 NE3       29.92S
CURRITUCK*     NOT AVBL
KILL DEVIL HLS PTCLDY    75  75 100 CALM      29.91R
MANTEO         MOCLDY    76  74  92 N5        29.92R
CAPE HATTERAS  PTCLDY    81  79  94 W9        29.91R
TARBORO*       FAIR      75  73  93 NE8       29.91S
GOLDSBORO      CLEAR     80  75  86 SW5       29.89S
WASHINGTON     MOCLDY    79  77  93 CALM      29.91R
GREENVILLE     CLEAR     77  77 100 N5        29.93R
NEW BERN       CLEAR     79  78  97 SW6       29.92S
WILMINGTON     PTCLDY    82  78  88 SW7       29.92F
$$

VAZ048-310700-
ELSEWHERE

CITY           SKY/WX    TMP DP  RH WIND       PRES   REMARKS
HARRISBURG PA  PTCLDY    66  50  56 N7        30.01R
BALTIMORE      PTCLDY    72  54  53 NE8       29.98S
ANNAPOLIS      PTCLDY    76  59  55 N9        29.97R
ANDREWS AFB    PTCLDY    68  56  64 N8        29.97R
PHILADELPHIA   PTCLDY    68  48  48 N13       30.00R
GREENSBORO     MOCLDY    78  65  63 N6        29.97S
ROCKY MOUNT    CLEAR     77  74  90 CALM      29.90F FOG
$$

VAZ100-310700-
MARINE

STATION/POSITION TIME  TEMP    WIND        PRES    WAVE   SWELL
                       AIR SEA DIR/SP/G            HT/PER HT/PER
                 (UTC) (F)     (DEG/KT/KT) (MB)    (FT/S) (FT/S)
CAPE MAY NJ      0524   72 75   30/  6/ 10 1014.4
LEWES DE         0524   75 78   50/ 15/ 16 1014.7
15NM E FENWICK I 0550   76 74   30/ 12/ 16 1014.3R   3/ 7   2/ 7
OCEAN-CITY-INLET 0524   78 74   50/  5/  8 1015.1
44089 WALLOPS IS 0556      76                N/A     2/ 6
WACHAPREAGUE VA  0530   75 84  340/  2/  4 1013.5F
THOMAS POINT MD  0600   77 81  360/ 17/ 19 1015.8R
GOOSES REEF MD   0554   77 82   40/ 14/ 17 1015.0R   2/17
COVE POINT MD    0524   79      10/  9/ 14 1014.6
SOLOMONS ISLAND  0524   76 83  340/  2/  5 1014.4R
BISHOPS HEAD MD  0524   79 84   20/  8/ 12 1014.2
PINEY POINT MD   0530           40/  7/  9   N/A
CAMBRIDGE MD     0524   76 84   20/  4/  6 1014.5
LEWISETTA VA     0530   80 85   20/  7/ 10 1014.1R
RAPPAHANNOCK LGT 0530           20/ 12/ 13 1014.3S
STINGRAY PT      0554   80 84  360/ 12/ 16 1014.1F   1/ 3
YORK RVR RNG VA  0530   78     220/ 10/ 11   N/A
YORKTOWN VA      0530   77 83  160/  4/  5 1013.6R
JAMESTOWN VA     0554   74 85  320/  2/  4 1014.1F
DOMINION TERM VA 0530   78      10/  2/  4 1014.0R
KIPTOPEKE VA     0530      82  270/ 11/ 15   N/A
CHES BAY BRIDGE  0530   77     310/  4/  5 1012.7R
CAPE HENRY VA    0530   75     210/  2/  5 1013.7F
WILLOUBY STN VA  0530   77      10/  6/  8 1013.9R
S CRANEY ISL VA  0530   77     180/  4/  6 1013.7R
CAPE HENRY BUOY  0526      77                N/A     2/ 6
64NM E OF VA BCH 0550   78      CALM  /  2 1012.6S   4/ 6   3/ 6
DUCK PIER NC     0530   78     340/ 11/ 14 1012.8F
44100 DUCK FRF   0556      80                N/A     2/ 6
44056 DUCK FRF   0556      77                N/A     1/11
OREGON INLET NC  0518   79 86  100/  3/  3 1012.7
HATTERAS NC      0530   80 84  230/  8/ 11 1013.3R
DIAMOND SHLS NC  0550   82 82  240/ 19/ 23 1012.2F
CAPE LOOKOUT NC  0600   82     230/ 10/ 14 1013.3F
$$



USA.gov is the U.S. government's official web portal to all federal, state and local government web resources and services.